FW5195 Weather Reports


Display with metric or nautical units.
time (UTC)temp
F
wind
direction
speed
MPH
gust
MPH
rain 1hr
in
rain 24hr
in
rain mn
in
humidity
%
barometer
mb
20260505093022 70 213 0.0 0.0 0.00 0.02 0.00 91 1015.8
20260505091527 70 209 0.0 0.0 0.00 0.02 0.00 90 1015.7
20260505090036 71 209 0.0 0.0 0.00 0.02 0.00 89 1015.4
20260505084528 71 209 0.0 0.0 0.00 0.02 0.00 88 1015.1
20260505083027 71 209 0.0 0.0 0.00 0.02 0.00 87 1014.8
20260505081528 71 124 0.0 0.0 0.00 0.02 0.00 87 1014.9
20260505080028 72 63 0.0 0.0 0.00 0.02 0.00 86 1015.0
20260505074520 72 63 0.0 0.0 0.00 0.02 0.00 85 1014.5
20260505073030 73 63 0.0 0.0 0.00 0.02 0.00 83 1014.3
20260505071520 73 63 0.0 0.0 0.00 0.02 0.00 81 1014.4
20260505070022 74 58 0.0 0.0 0.00 0.02 0.00 80 1014.0
20260505064536 75 351 0.0 0.0 0.00 0.02 0.00 80 1014.2
20260505063022 75 43 0.0 0.0 0.00 0.02 0.00 80 1013.9
20260505061530 75 35 0.0 0.0 0.00 0.02 0.00 79 1014.1
20260505060021 76 45 0.0 2.0 0.00 0.02 0.00 79 1013.9
20260505054523 76 346 0.0 0.0 0.00 0.02 0.00 77 1013.8
20260505053017 77 80 0.0 0.0 0.00 0.02 0.00 76 1013.7
20260505051520 77 48 0.0 0.0 0.00 0.02 0.00 74 1013.7
20260505041516 79 20 0.0 0.0 0.00 0.02 0.00 72 1013.4
20260505040015 78 325 0.0 0.0 0.00 0.02 0.00 72 1013.4
20260505034516 78 47 0.0 1.0 0.00 0.02 0.00 73 1013.2
20260505033018 78 313 0.0 3.0 0.00 0.02 0.00 72 1013.5
20260505031535 78 330 0.0 5.0 0.00 0.02 0.00 73 1013.4
20260505030013 79 18 0.0 4.0 0.00 0.02 0.00 71 1013.6
20260505024517 79 353 0.0 4.0 0.00 0.02 0.00 71 1013.7
20260505023010 79 26 0.0 3.0 0.00 0.02 0.00 70 1013.9
20260505021504 80 114 0.0 3.0 0.00 0.02 0.00 69 1014.3
20260505020003 80 12 0.0 2.0 0.00 0.02 0.00 70 1014.5
20260505014609 79 345 0.0 0.0 0.00 0.02 0.00 69 1014.6
20260505013109 79 68 0.0 3.0 0.00 0.02 0.00 69 1014.8
20260505011557 80 11 0.0 1.0 0.00 0.02 0.00 69 1015.3
20260505010059 79 329 0.0 0.0 0.00 0.02 0.00 68 1015.4
20260505004559 79 217 0.0 1.0 0.00 0.02 0.00 69 1015.5
20260505003055 79 106 0.0 0.0 0.00 0.02 0.00 71 1015.6
20260505001555 78 294 0.0 2.0 0.00 0.02 0.00 73 1015.8
20260505000106 77 351 0.0 0.0 0.00 0.02 0.00 74 1015.8
20260504234547 77 351 0.0 0.0 0.00 0.02 0.00 75 1015.8
20260504233045 76 349 0.0 0.0 0.00 0.02 0.00 78 1015.9
20260504231541 74 319 0.0 0.0 0.00 0.02 0.00 83 1016.0
20260504230046 73 210 0.0 0.0 0.00 0.02 0.00 90 1016.2
20260504224542 71 249 0.0 0.0 0.00 0.04 0.00 94 1016.2
20260504223037 69 264 0.0 1.0 0.00 0.04 0.00 96 1016.2
20260504221544 68 254 0.0 1.0 0.00 0.04 0.00 97 1016.1
20260504220032 67 242 0.0 1.0 0.00 0.04 0.00 97 1016.0
20260504214526 66 204 0.0 1.0 0.00 0.04 0.00 98 1016.1
20260504213024 66 249 0.0 1.0 0.00 0.04 0.00 98 1016.0
20260504211523 65 226 0.0 0.0 0.00 0.04 0.00 98 1015.8
20260504210023 64 278 0.0 0.0 0.00 0.04 0.00 97 1015.7
20260504204522 64 239 0.0 0.0 0.00 0.04 0.00 97 1015.5
20260504203027 64 232 0.0 0.0 0.00 0.04 0.00 97 1015.4
20260504201521 64 238 0.0 0.0 0.00 0.04 0.00 97 1015.3
20260504200020 64 233 0.0 0.0 0.00 0.04 0.00 97 1015.2
20260504194519 64 237 0.0 0.0 0.00 0.05 0.00 97 1015.1
20260504193019 64 232 0.0 0.0 0.00 0.05 0.00 97 1014.9
20260504191517 64 242 0.0 0.0 0.00 0.05 0.00 97 1014.8
20260504190016 64 242 0.0 0.0 0.00 0.05 0.00 97 1014.6
20260504184518 65 242 0.0 0.0 0.00 0.05 0.00 97 1014.6
20260504183014 65 242 0.0 0.0 0.00 0.05 0.00 97 1014.6
20260504181513 65 244 0.0 0.0 0.00 0.05 0.00 97 1014.5
20260504180012 65 237 0.0 0.0 0.00 0.05 0.00 97 1014.5
20260504174513 65 231 0.0 0.0 0.00 0.13 0.00 97 1014.6
20260504173012 65 231 0.0 0.0 0.00 0.13 0.00 97 1014.5
20260504171512 65 232 0.0 0.0 0.00 0.13 0.00 97 1014.5